Regional Weather Roundup
Issued by NWS Jackson, KY

Home | Current Version | Previous Version | Graphics & Text | Print | Product List | Glossary On
Versions: 1 2 3 4 5 6 7 8 9 10 11 12 13 14 15 16 17 18 19 20 21 22 23 24 25 26 27
000
ASUS43 KJKL 240110
RWRJKL

EAST KENTUCKY HOURLY WEATHER ROUNDUP
NATIONAL WEATHER SERVICE JACKSON KY
900 PM EDT SAT SEP 23 2017

NOTE: "FAIR" INDICATES FEW OR NO CLOUDS BELOW 12,000 FEET WITH
NO SIGNIFICANT WEATHER AND/OR OBSTRUCTIONS TO VISIBILITY.

* THESE REPORTS ARE NOT UNDER NWS QUALITY CONTROL AND MAY NOT
  REPORT WEATHER SUCH AS PRECIPITATION AND FOG.

KYZ079-080-083-085-087-088-110-112-115-119-120-240200
...EASTERN KENTUCKY...

CITY           SKY/WX    TMP DP  RH WIND       PRES   REMARKS
JACKSON        CLEAR     74  61  63 CALM      30.10R
LONDON         CLEAR     73  63  70 CALM      30.08S
SOMERSET*      CLEAR     72  63  73 CALM      30.08S
MONTICELLO*    CLEAR     67  65  93 CALM      30.08
WILLIAMSBURG*  CLEAR     73  63  68 NE3       30.08R
MIDDLESBORO*   CLEAR     70  67  89 CALM      30.09R
HARLAN APT*    CLEAR     70  63  78 CALM      30.10S
PIKE CO APT*     N/A     74  62  64 N3        30.10S
BIG SANDY APT* CLEAR     71  64  80 CALM      30.09S
MOREHEAD APT*  CLEAR     77  64  65 CALM      30.10S
$$

KYZ035-036-041-042-044-050-067-078-099-240200
...CENTRAL KENTUCKY...

CITY           SKY/WX    TMP DP  RH WIND       PRES   REMARKS
MT STERLING*   CLEAR     70  64  83 CALM      30.10S
FLEMING/MASON* CLEAR     77  64  64 E5        30.10R
DANVILLE*      CLEAR     70  61  73 NE3       30.09S
LEXINGTON      CLEAR     78  62  57 E6        30.08S
FRANKFORT      CLEAR     73  63  70 CALM      30.06S
LOUISVILLE     PTCLDY    82  62  50 E5        30.05S
LEBANON*         N/A     75  63  64 CALM      30.07S
GLASGOW*       CLEAR     73  66  79 CALM      30.04S
BOWLING GREEN  CLEAR     76  68  76 CALM      30.03S
$$

KYZ091>093-OHZ055-061-077-WVZ005-015-034-035-042-240200
...SOUTHERN OHIO/WEST VIRGINIA...

CITY           SKY/WX    TMP DP  RH WIND       PRES   REMARKS
COVINGTON      PTCLDY    77  66  68 CALM      30.08R
COLUMBUS       PTCLDY    78  62  57 E5        30.09S
DAYTON         PTCLDY    76  58  53 SE9       30.11R
WILMINGTON     CLEAR     74  61  63 E5        30.10R
HUNTINGTON     CLEAR     79  59  50 NE6       30.07R
CHARLESTON     CLEAR     70  61  73 CALM      30.09R
PINEVILLE*     CLEAR     65  60  83 MISG      30.18R
BECKLEY        CLEAR     65  55  70 CALM      30.17R
BLUEFIELD      CLEAR     71  44  37 E3        30.19R
LOGAN CO APT*    N/A     77  59  53 CALM      30.12R
$$

VAZ002-007-008-TNZ017-027-036-066-071-240200
...SOUTHWEST VIRGINIA/EAST TENNESSEE...

CITY           SKY/WX    TMP DP  RH WIND       PRES   REMARKS
WISE*          CLEAR     70  61  73 N5        30.18R
JONESVILLE*      N/A     68  64  88 CALM      30.11R
ABINGDON*      CLEAR     73  54  50 E6        30.14R
BRISTOL        PTCLDY    74  61  63 NE3       30.09R
MORRISTOWN*    CLOUDY    79  64  61 E6        30.05R
SEVIERVILLE*   CLEAR     75  63  64 CALM      30.04R
KNOXVILLE      CLOUDY    80  64  58 N7        30.03R
LAFOLLETTE*    CLEAR     72  68  88 CALM      30.10R
OAK RIDGE      CLEAR     75  69  81 CALM      30.06R
CROSSVILLE     CLEAR     71  66  84 CALM      30.10R
NASHVILLE      CLEAR     81  69  67 CALM      30.03R
$$

...KEY TO REMARKS...
VSB - VISIBILITY IN MILES
WCI - WIND CHILL INDEX
HX  - HEAT INDEX

$$




USA.gov is the U.S. government's official web portal to all federal, state and local government web resources and services.